Preview of NWS' New Version of Forecast
This preview is not operational and should not be used for support decisions.

Regional Weather Roundup (RWR)

Issued by National Weather Service (NWS)

                            
000
ASUS44 KMEG 181310
RWRTN 
TENNESSEE HOURLY STATE WEATHER ROUNDUP
NATIONAL WEATHER SERVICE MEMPHIS TN
700 AM CST MON FEB 18 2019

TNZ002-004-019-021-049-052-054-088>092-181400-
WEST TENNESSEE
  
CITY           SKY/WX    TMP DP  RH WIND       PRES   REMARKS
MEMPHIS INTL   MOCLDY    32  24  72 N9        30.29R WCI  24          
NWS MEMPHIS      N/A     31 N/A N/A MISG        N/A                   
JACKSON        FAIR      30  24  78 N7        30.30R WCI  23          
DYERSBURG      FAIR      29  23  78 CALM      30.31R                  
COVINGTON      CLEAR     30  23  74 N6        30.30R WCI  24          
UNION CITY     CLEAR     28  21  74 N5        30.29R WCI  23          
PARIS          CLEAR     28  23  80 CALM      30.28R                  
SELMER         CLEAR     30  27  86 N3        30.26R                  
SAVANNAH       MOCLDY    34  28  80 NW9       30.26R WCI  26          
$$

TNZ008-025-027-028-033-062-065-066-181400-
NORTH MIDDLE TENNESSEE
  
CITY           SKY/WX    TMP DP  RH WIND       PRES   REMARKS
NASHVILLE      CLOUDY    34  25  69 N10       30.25R WCI  26          
DICKSON        SUNNY     30  25  80 NW5       30.24R WCI  25          
CLARKSVILLE    MOCLDY    30  22  72 W8        30.26R WCI  22          
LEBANON        SUNNY     34  28  80 NW7       30.22R WCI  28          
SMYRNA         CLOUDY    34  29  82 NW9       30.26R WCI  27          
MURFREESBORO   CLOUDY    36  30  80 NW7       30.22R WCI  30          
COOKEVILLE     CLOUDY    36  32  87 NW6G12    30.19R WCI  31          
LIVINGSTON     CLOUDY    34  30  86 VRB6      30.16R WCI  29          
GALLATIN       PTSUNNY   32  27  80 NW9G16    30.27R WCI  24          
CROSSVILLE     CLOUDY    35  32  88 W8        30.13R WCI  29          
ROCKWOOD       CLOUDY    37  34  87 NW6G13    30.12R WCI  33          
$$

TNZ061-075-076-078-094-096-097-181400-
SOUTH MIDDLE TENNESSEE
  
CITY           SKY/WX    TMP DP  RH WIND       PRES   REMARKS
LAWRENCEBURG   CLOUDY    36  32  87 NW6G13    30.21R WCI  31          
LEWISBURG      CLOUDY    36  30  80 NW6       30.22R WCI  31          
FAYETTEVILLE   CLOUDY    37  36  93 N7        30.20R WCI  32          
TULLAHOMA      CLOUDY    36  34  93 N10       30.19R WCI  28          
WINCHESTER     CLOUDY    37  34  87 NW6       30.19R WCI  33          
MCMINNVILLE    CLOUDY    36  34  93 NW12      30.19R WCI  27          
COLUMBIA       PTCLDY    34  30  86 NW6       30.23R WCI  29          
SHELBYVILLE    CLOUDY    37  34  87 N7        30.21R WCI  32          
$$

TNZ017-018-042-046-047-181400-
NORTHEAST TENNESSEE
  
CITY           SKY/WX    TMP DP  RH WIND       PRES   REMARKS
TRI CITIES     FAIR      42  37  82 W12       30.05R                  
ELIZABETHTON   CLOUDY    43  39  87 W6        30.04R                  
GREENEVILLE    CLOUDY    41  37  87 W8        30.07R                  
$$

TNZ012-013-036-069-073-074-181400-
CENTRAL EAST TENNESSEE
  
CITY           SKY/WX    TMP DP  RH WIND       PRES   REMARKS
KNOXVILLE      MOCLDY    41  36  82 SW9       30.14R                  
OAK RIDGE      FAIR      41  37  86 VRB5      30.15R                  
DOWNTOWN KNOXV CLOUDY    43  39  87 SW8       30.14R                  
GATLINBURG     CLOUDY    43  39  87 W6        30.13R                  
MORRISTOWN     PTCLDY    41  36  81 W7        30.10R                  
JACKSBORO      MOCLDY    41  32  70 VRB7G14   30.15R                  
$$

TNZ083-085-099-181400-
SOUTHEAST TENNESSEE
  
CITY           SKY/WX    TMP DP  RH WIND       PRES   REMARKS
CHATTANOOGA    MOCLDY    42  34  73 N5        30.18R                  
DAYTON         CLOUDY    43  36  75 CALM      30.17R                  
$$

SKY/WX REPORTED AS FAIR MEANS FEW OR NO CLOUDS BELOW
12 THOUSAND FEET.